Skip Page Navigation
NASA JPL Caltech
NASA Logo - Jet Propulsion Laboratory + View the NASA Portal
+ Center for Near-Earth Object Studies
JPL Home Earth Solar System Stars & Galaxies Technology
JPL Solar System Dynamics
BODIES ORBITS EPHEMERIDES TOOLS PHYSICAL DATA DISCOVERY FAQ SITE MAP
JPL Small-Body Database Browser
Search: [ help ]  
34116 (2000 PW26)
Classification: Main-belt Asteroid          SPK-ID: 2034116
Ephemeris | Orbit Diagram | Orbital Elements | Mission Design | Physical Parameters | Discovery Circumstances | Close-Approach Data ]

[ show orbit diagram ]
Orbital Elements at Epoch 2459000.5 (2020-May-31.0) TDB
Reference: JPL 24 (heliocentric ecliptic J2000)
 Element Value Uncertainty (1-sigma)   Units 
e .02270205598061493 4.0281e-08  
a 3.019951717544723 1.949e-08 au
q 2.951392604594269 1.2889e-07 au
i 10.99900534057356 4.4412e-06 deg
node 273.1501920159229 2.1712e-05 deg
peri 80.16712164335783 0.00010147 deg
M 298.0482113527474 9.9745e-05 deg
tp 2459330.375282503519
(2021-Apr-25.87528250)
0.00053219 TDB
period 1916.895448773024
5.25
1.8557e-05
5.081e-08
d
yr
n .1878036698508678 1.818e-09 deg/d
Q 3.088510830495178 1.9932e-08 au
  Orbit Determination Parameters
   # obs. used (total)      1853  
   data-arc span      8114 days (22.21 yr)  
   first obs. used      1998-03-31  
   last obs. used      2020-06-17  
   planetary ephem.      DE431  
   SB-pert. ephem.      SB431-N16  
   condition code      0  
   norm. resid. RMS      .49296  
   source      ORB  
   producer      Otto Matic  
   solution date      2020-Jun-23 20:19:18  

Additional Information
 Earth MOID = 1.96423 au 
 Jupiter MOID = 2.08619 au 
 T_jup = 3.218 
[ show covariance matrix ]

Ephemeris | Orbit Diagram | Orbital Elements | Mission Design | Physical Parameters | Discovery Circumstances | Close-Approach Data ]

Physical Parameter Table
Parameter Symbol Value Units Sigma Reference Notes
absolute magnitude H 13.0   n/a MPO395328  
diameter diameter 14.106 km 0.071 urn:nasa:pds:neowise_diameters_albedos::2.0[mainbelt] (http://adsabs.harvard.edu/abs/2011ApJ...741...68M)  
geometric albedo albedo 0.058   0.009 urn:nasa:pds:neowise_diameters_albedos::2.0[mainbelt] (http://adsabs.harvard.edu/abs/2011ApJ...741...68M)  

34116 (2000 PW26)          Discovered 2000-Aug-05 by JPL/GEODSS NEAT at Haleakala
Reference: 20020128/Numbers.arcLast Updated: 2004-04-19

[ show close-approach data ]
Alternate Designations
 2000 PW26 = 1998 FM114 
Ephemeris | Orbit Diagram | Orbital Elements | Mission Design | Physical Parameters | Discovery Circumstances | Close-Approach Data ]
ABOUT SSD CREDITS/AWARDS PRIVACY/COPYRIGHT GLOSSARY LINKS
FirstGov 2020-Aug-09 13:04 UT
(server date/time)  
NASA Home Page
Site Manager:   Ryan S. Park
Webmaster  Alan B. Chamberlin